Probability
0 0 0 0 0 0 0 0 0 0 0 0 0 0 0 0 0 0 0 0 0 0 0 0 0 0 0 0 0 0 0 0 0 0 0 0 0 0 0 0 0 0 0
0 0 0 0 0 0 0 0 0 0 0 0 0 0 0 0 0 0 0 0 0 0 0 0 0 0 0 0 0 0 0 0 0 0 0 0 0 0 0 0 0 0 0
0 0 0 0 0 0 0 0 0 0 0 0 0 0 0 0 0 0 0 0 0 0 0 0 0 0 0 0 0 0 0 0 0 0 0 0 0 0 0 0 0 0 0
0 0 0 0 0 0 0 0 0 0 0 0 0 0 0 0 0 0 0 0 0 0 0 0 0 0 0 0 0 0 0 0 0 0 0 0 0 0 0 0 0 0 0
0 0 0 0 0 0 0 0 0 0 0 0 0 0 0 0 0 0 0 0 0 0 0 0 0 0 0 0 0 0 0 0 0 0 0 0 0 0 0 0 0 0 0
0 0 0 0 0 0 0 0 0 0 0 0 0 0 0 0 0 0 0 0 0 0 0 0 0 0 0 0 0 0 0 0 0 0 0 0 0 0 0 0 0 0 0
0 0 0 0 0 0 0 0 0 0 0 0 0 0 0 0 0 0 0 0 0 0 0 0 0 0 0 0 0 0 0 0 0 0 0 0 0 0 0 0 0 0 0
0 0 0 0 0 0 0 0 0 0 0 0 0 0 0 0 0 0 0 0 0 0 0 0 0 0 0 0 0 0 0 0 0 0 0 0 0 0 0 0 0 0 0
0 0 0 0 0 0 0 0 0 0 0 0 0 0 0 0 0 0 0 0 0 0 0 0 0 0 0 0 0 0 0 0 0 0 0 0 0 0 0 0 0 0 0
0 0 0 0 0 0 0 0 0 0 0 0 0 0 0 0 0 0 0 0 0 0 0 0 0 0 0 0 0 0 0 0 0 0 0 0 0 0 0 0 0 0 0
0 0 0 0 0 0 0 0 0 0 0 0 0 0 0 0 0 0 0 0 0 0 0 0 0 0 0 0 0 0 0 0 0 0 0 0 0 0 0 0 0 0 0
0 0 0 0 0 0 0 0 0 0 0 0 0 0 0 0 0 0 0 0 0 0 0 0 0 0 0 0 0 0 0 0 0 0 0 0 0 0 0 0 0 0 0
0 0 0 0 0 0 0 0 0 0 0 0 0 0 0 0 0 0 0 0 0 0 0 0 0 0 0 0 0 0 0 0 0 0 0 0 0 0 0 0 0 0 0
0 0 0 0 0 0 0 0 0 0 0 0 0 0 0 0 0 0 0 0 0 0 0 0 0 0 0 0 0 0 0 0 0 0 0 0 0 0 0 0 0 0 0
0 0 0 0 0 0 0 0 0 0 0 0 0 0 0 0 0 0 0 0 0 0 0 0 0 0 0 0 0 0 0 0 0 0 0 0 0 0 0 0 0 0 0
0 0 0 0 0 0 0 0 0 0 0 0 0 0 0 0 0 0 0 0 0 0 0 0 0 0 0 0 0 0 0 0 0 0 0 0 0 0 0 0 0 0 0
0 0 0 0 0 0 0 0 0 0 0 0 0 0 0 0 0 0 0 0 0 0 0 0 0 0 0 0 0 0 0 0 0 0 0 0 0 0 0 0 0 0 0
0 0 0 0 0 0 0 0 0 0 0 0 0 0 0 0 0 0 0 0 0 0 0 0 0 0 0 0 0 0 0 0 0 0 0 0 0 0 0 0 0 0 0
0 0 0 0 0 0 0 0 0 0 0 0 0 0 0 0 0 0 0 0 0 0 0 0 0 0 0 0 0 0 0 0 0 0 0 0 0 0 0 0 0 0 0
0 0 0 0 0 0 0 0 0 0 0 0 0 0 0 0 0 0 0 0 0 0 0 0 0 0 0 0 0 0 0 0 0 0 0 0 0 0 0 0 0 0 0
0 0 0 0 0 0 0 0 0 0 0 0 0 0 0 0 0 0 0 0 0 0 0 0 0 0 0 0 0 0 0 0 0 0 0 0 0 0 0 0 0 0 0
0 0 0 0 0 0 0 0 0 0 0 0 0 0 0 0 0 0 0 0 0 0 0 0 0 0 0 0 0 0 0 0 0 0 0 0 0 0 0 0 0 0 0
0 0 0 0 0 0 0 0 0 0 0 0 0 0 0 0 0 0 0 0 0 0 0 0 0 0 0 0 0 0 0 0 0 0 0 0 0 0 0 0 0 0 0
0 0 0 0 0 0 0 0 0 0 0 0 0 0 0 0 0 0 0 0 0 0 0 0 0 0 0 0 0 0 0 0 0 0 0 0 0 0 0 0 0 0 0
0 0 0 0 0 0 0 0 0 0 0 0 0 0 0 0 0 0 0 0 0 0 0 0 0 0 0 0 0 0 0 0 0 0 0 0 0 0 0 0 0 0 0
0 0 0 0 0 0 0 0 0 0 0 0 0 0 0 0 0 0 0 0 0 0 0 0 0 0 0 0 0 0 0 0 0 0 0 0 0 0 0 0 0 0 0
Height
5848 5850 5852 5853 5855 5856 5858 5859 5859 5860 5860 5861 5861 5862 5862 5861 5861 5860 5860 5859 5858 5858 5857 5856 5855 5854 5852 5851 5850 5848 5847 5846 5844 5843 5842 5840 5839 5838 5836 5835 5833 5832 5830
5844 5846 5848 5850 5852 5853 5855 5856 5857 5858 5858 5858 5859 5859 5859 5859 5858 5858 5857 5857 5856 5856 5855 5854 5852 5851 5850 5848 5847 5846 5844 5843 5842 5840 5839 5838 5837 5835 5834 5832 5831 5829 5827
5841 5843 5845 5847 5849 5850 5852 5853 5854 5855 5855 5856 5856 5856 5856 5856 5856 5855 5855 5854 5854 5853 5852 5851 5850 5848 5847 5846 5844 5843 5841 5840 5839 5837 5836 5835 5833 5832 5830 5829 5827 5825 5823
5838 5840 5841 5843 5845 5847 5849 5850 5851 5852 5852 5853 5853 5853 5853 5853 5853 5852 5852 5851 5851 5850 5849 5848 5847 5845 5844 5842 5841 5839 5838 5836 5835 5833 5832 5831 5830 5828 5826 5825 5823 5821 5819
5834 5836 5838 5840 5842 5844 5845 5847 5848 5848 5849 5849 5850 5850 5850 5850 5849 5849 5849 5848 5847 5847 5846 5844 5843 5842 5840 5839 5837 5836 5834 5833 5831 5830 5828 5827 5825 5824 5822 5821 5819 5817 5815
5831 5833 5835 5837 5839 5840 5841 5843 5844 5845 5846 5846 5846 5847 5847 5846 5846 5845 5845 5844 5844 5843 5842 5841 5839 5838 5836 5835 5833 5832 5831 5829 5827 5826 5824 5822 5821 5819 5817 5815 5814 5812 5810
5827 5829 5831 5833 5835 5836 5838 5839 5840 5841 5842 5842 5843 5843 5843 5843 5842 5841 5841 5840 5839 5839 5838 5836 5835 5834 5832 5831 5829 5828 5826 5824 5823 5821 5819 5817 5815 5814 5812 5810 5807 5805 5803
5824 5826 5827 5829 5831 5832 5834 5835 5836 5837 5838 5838 5839 5839 5839 5839 5838 5837 5837 5836 5835 5834 5833 5832 5830 5829 5828 5826 5824 5823 5821 5819 5817 5815 5814 5811 5809 5807 5805 5803 5800 5798 5795
5820 5822 5824 5825 5827 5828 5829 5831 5832 5832 5833 5834 5835 5835 5835 5835 5834 5833 5833 5832 5831 5830 5828 5827 5826 5824 5823 5821 5819 5818 5816 5813 5811 5809 5807 5805 5802 5800 5798 5795 5793 5790 5787
5816 5818 5819 5821 5822 5824 5825 5826 5827 5828 5829 5829 5830 5830 5831 5830 5830 5829 5828 5827 5826 5825 5824 5822 5821 5819 5818 5816 5814 5812 5810 5808 5805 5803 5800 5798 5795 5792 5790 5787 5784 5781 5777
5812 5814 5815 5816 5818 5819 5820 5821 5822 5823 5824 5825 5826 5826 5826 5826 5825 5824 5823 5822 5821 5820 5819 5817 5815 5814 5812 5810 5808 5806 5804 5801 5799 5796 5793 5790 5787 5784 5781 5778 5775 5771 5768
5808 5809 5811 5812 5813 5815 5816 5817 5818 5819 5820 5821 5821 5821 5821 5821 5820 5819 5818 5817 5816 5815 5813 5812 5810 5808 5806 5804 5802 5799 5797 5794 5792 5789 5786 5783 5779 5776 5772 5769 5765 5762 5758
5803 5805 5806 5808 5809 5810 5811 5812 5813 5814 5815 5816 5816 5816 5816 5816 5815 5815 5814 5812 5811 5810 5808 5806 5804 5802 5799 5797 5794 5792 5789 5787 5784 5781 5778 5774 5770 5767 5763 5759 5755 5752 5748
5798 5800 5801 5803 5804 5805 5806 5807 5808 5809 5810 5811 5811 5811 5811 5811 5810 5809 5808 5807 5806 5804 5802 5800 5797 5795 5792 5790 5787 5784 5782 5779 5776 5773 5769 5765 5762 5758 5754 5750 5746 5742 5738
5793 5795 5796 5797 5799 5800 5801 5802 5803 5804 5804 5805 5806 5806 5806 5805 5805 5804 5802 5801 5799 5798 5795 5793 5790 5788 5785 5782 5779 5777 5774 5770 5767 5764 5760 5757 5753 5749 5745 5740 5736 5732 5727
5788 5789 5791 5792 5793 5794 5796 5796 5797 5798 5799 5799 5800 5800 5800 5799 5798 5797 5796 5795 5793 5791 5789 5786 5783 5780 5778 5775 5772 5769 5765 5762 5759 5755 5751 5747 5743 5739 5735 5731 5726 5722 5717
5783 5784 5785 5787 5788 5789 5790 5791 5791 5792 5792 5793 5793 5793 5793 5793 5792 5791 5789 5788 5786 5783 5781 5778 5776 5773 5770 5767 5764 5760 5757 5753 5750 5746 5742 5738 5734 5729 5725 5721 5716 5712 5707
5778 5779 5780 5781 5782 5783 5784 5785 5785 5786 5786 5786 5787 5787 5786 5786 5785 5783 5782 5780 5778 5776 5773 5771 5768 5765 5762 5758 5755 5752 5748 5744 5741 5737 5733 5728 5724 5719 5715 5710 5706 5701 5696
5772 5773 5774 5775 5776 5777 5778 5778 5779 5779 5779 5779 5779 5779 5779 5778 5777 5776 5774 5773 5771 5768 5766 5763 5760 5757 5753 5750 5746 5742 5739 5735 5731 5727 5723 5718 5714 5709 5704 5699 5695 5690 5685
5766 5767 5768 5769 5770 5771 5771 5772 5772 5772 5772 5772 5772 5772 5771 5770 5769 5767 5766 5764 5762 5760 5757 5755 5752 5748 5744 5740 5737 5733 5729 5725 5721 5717 5712 5708 5703 5698 5693 5688 5683 5678 5673
5760 5761 5762 5763 5764 5764 5765 5765 5765 5765 5765 5765 5765 5764 5763 5762 5761 5759 5757 5755 5753 5751 5749 5746 5743 5739 5735 5731 5727 5723 5719 5715 5711 5706 5701 5697 5692 5687 5682 5677 5672 5667 5661
5754 5755 5756 5757 5757 5758 5758 5758 5758 5758 5757 5757 5757 5756 5755 5754 5752 5751 5749 5747 5745 5742 5739 5736 5733 5729 5725 5721 5717 5713 5709 5704 5700 5695 5690 5686 5681 5676 5671 5666 5660 5655 5649
5748 5749 5750 5750 5750 5751 5751 5751 5751 5750 5750 5749 5748 5747 5746 5745 5743 5742 5740 5738 5735 5733 5730 5726 5723 5719 5715 5711 5706 5702 5698 5693 5689 5684 5679 5674 5669 5664 5659 5654 5648 5643 5638
5741 5742 5742 5743 5743 5743 5743 5743 5743 5742 5742 5741 5740 5739 5738 5736 5734 5732 5730 5728 5726 5723 5720 5716 5712 5709 5705 5700 5696 5691 5686 5682 5677 5672 5668 5663 5657 5652 5647 5642 5636 5631 5626
5734 5735 5735 5735 5735 5735 5735 5735 5734 5734 5733 5732 5731 5730 5729 5727 5725 5723 5721 5718 5715 5712 5709 5706 5702 5698 5694 5689 5685 5680 5675 5671 5666 5661 5656 5651 5646 5640 5635 5630 5624 5619 5613
5727 5727 5727 5727 5727 5727 5727 5726 5726 5725 5724 5723 5722 5721 5719 5717 5715 5713 5711 5708 5705 5702 5699 5695 5691 5687 5683 5679 5674 5669 5664 5659 5654 5649 5644 5639 5634 5629 5623 5618 5613 5607 5602
Wind_Speed
17 17 17 16 15 14 13 11 11 10 10 9 10 9 9 9 9 9 9 9 9 10 10 10 10 11 11 12 12 12 12 12 12 12 11 12 12 12 12 13 14 14 15
16 16 16 16 15 14 13 12 12 11 10 10 11 10 10 10 10 10 9 10 10 11 11 11 11 11 12 12 13 13 13 14 14 13 13 13 14 14 14 15 16 16 16
16 16 16 15 15 14 14 13 12 12 11 11 11 11 10 10 11 11 11 11 11 12 11 12 13 13 13 13 14 14 14 15 15 15 15 15 16 16 16 17 17 17 17
16 15 16 15 15 15 15 14 13 13 12 12 11 11 11 11 11 12 12 13 13 13 13 14 15 15 15 15 15 15 16 16 16 16 16 17 17 17 17 18 18 18 19
16 15 15 16 16 16 15 14 13 13 13 12 12 12 12 13 14 14 14 14 14 14 14 15 15 16 16 16 16 17 17 17 17 17 17 18 18 18 18 19 19 20 21
17 16 16 16 16 16 16 15 14 14 13 13 12 13 13 14 15 15 15 15 16 16 16 16 16 17 17 17 17 18 18 19 19 19 20 20 20 21 21 22 22 23 23
17 17 16 16 17 17 16 16 15 15 14 14 14 14 14 15 15 16 16 17 17 17 17 17 18 18 19 19 20 20 20 20 21 21 22 22 23 24 24 24 25 26 26
17 17 16 16 17 17 17 16 16 16 16 16 15 15 16 16 16 16 16 17 18 18 18 18 19 19 20 21 21 21 21 21 22 23 23 24 25 25 26 27 28 28 29
15 16 16 17 17 17 17 17 17 17 17 16 16 16 16 17 17 17 17 17 18 18 19 19 19 20 21 21 22 22 23 23 24 24 25 26 27 28 29 30 30 31 31
15 15 16 17 17 17 17 18 17 17 17 17 17 17 17 17 18 18 18 18 18 19 19 20 20 21 22 22 23 23 24 25 26 27 27 28 29 30 31 32 32 32 32
16 16 16 16 16 16 16 17 17 17 16 16 17 17 17 18 18 18 18 18 19 19 20 21 22 23 23 24 25 26 27 27 28 28 29 30 31 32 32 33 33 33 33
17 16 16 16 16 16 16 17 17 17 16 16 17 17 18 18 18 19 19 19 20 20 22 22 23 23 24 25 27 27 28 29 29 29 30 31 32 33 33 34 34 35 36
17 17 17 17 17 17 17 17 17 18 18 18 17 18 18 19 20 20 20 20 21 22 23 24 25 25 26 27 28 29 29 30 30 31 32 32 34 34 35 36 36 37 37
18 18 18 18 18 18 18 18 18 19 19 19 19 19 20 20 20 21 21 22 22 23 24 25 26 26 27 28 28 29 29 30 31 32 33 34 35 36 37 37 37 38 38
18 18 18 18 18 18 19 19 20 20 19 19 20 20 20 21 22 22 23 23 23 24 25 26 27 27 27 28 29 30 30 31 32 33 34 35 36 37 37 37 37 38 38
18 19 19 19 19 19 20 20 20 20 20 20 21 21 22 23 23 23 24 24 25 26 27 27 28 28 28 29 31 31 32 32 33 34 36 37 37 37 38 38 37 38 38
18 19 20 20 20 20 21 21 21 21 21 22 23 23 24 25 25 25 25 26 26 27 28 28 29 29 30 31 32 33 33 34 34 35 36 37 38 38 38 38 38 39 39
19 19 20 20 21 21 21 21 22 22 23 23 24 24 25 26 26 27 27 27 28 28 28 29 30 31 33 33 34 34 35 35 35 36 38 38 39 39 39 40 40 40 41
20 20 20 21 21 21 21 22 22 22 23 24 25 26 26 27 28 28 27 28 28 29 30 30 32 33 34 35 35 35 36 36 37 38 39 40 40 40 41 41 41 42 43
20 20 21 21 21 21 21 22 22 23 24 25 26 26 27 28 29 28 28 29 29 30 31 32 33 34 35 35 36 36 37 38 39 39 40 40 41 42 42 42 42 43 44
21 21 21 21 21 22 22 22 23 23 24 25 26 27 28 29 29 29 29 29 30 31 32 33 34 35 36 36 37 37 38 39 40 40 41 42 42 42 43 43 43 44 43
21 21 21 22 22 23 23 24 24 24 26 26 27 28 28 29 29 30 30 30 31 32 33 34 35 35 36 37 38 39 39 40 40 41 41 42 43 43 43 44 44 44 44
22 22 22 23 23 24 24 25 25 26 27 27 28 28 28 29 29 30 30 31 32 34 35 36 36 37 37 38 39 40 40 40 41 41 42 42 43 43 43 44 44 44 44
23 23 24 24 25 25 25 26 26 27 28 28 27 28 29 29 30 31 32 33 34 34 35 36 37 37 38 38 39 40 40 41 42 43 43 43 43 43 43 44 44 44 44
24 24 25 25 26 26 27 27 27 28 28 28 29 29 30 31 31 32 33 34 35 35 36 37 37 38 38 39 40 41 41 42 43 43 43 43 44 44 44 44 44 44 44
25 26 26 26 26 26 27 27 27 28 29 30 30 31 31 31 32 33 34 34 35 36 36 37 38 39 39 40 41 41 42 43 43 43 43 43 44 43 43 43 43 43 43
Wind_Direction
234 233 233 234 236 239 240 241 245 243 239 243 252 260 266 273 277 279 281 283 286 288 293 298 300 301 303 304 305 306 304 303 302 302 302 301 300 299 299 300 299 299 297
232 231 231 234 235 235 238 241 244 247 250 250 251 259 269 273 276 277 279 283 286 289 293 297 302 306 305 307 308 307 303 303 302 301 299 299 298 298 300 302 302 300 298
231 230 231 232 234 236 239 242 243 247 252 257 257 260 265 270 274 277 279 284 286 289 290 294 298 300 301 304 307 307 304 301 298 297 299 298 299 298 297 300 302 300 298
229 230 229 231 233 235 239 241 244 248 253 256 261 266 268 271 273 277 281 283 286 286 289 293 296 297 297 300 302 303 304 302 298 295 296 297 297 299 299 298 298 297 295
229 230 230 233 234 235 238 242 246 249 253 256 259 268 270 273 276 277 280 282 283 285 289 292 293 296 298 299 300 301 302 302 301 299 297 297 297 297 298 297 296 297 296
229 231 234 235 235 235 238 242 247 251 254 257 261 267 271 276 280 280 280 282 282 285 288 290 292 294 296 298 299 300 300 300 299 297 296 297 296 296 297 297 298 297 298
231 233 235 239 238 237 240 244 248 252 257 259 263 268 273 279 285 285 283 285 285 284 287 290 291 293 294 295 296 296 297 297 298 297 296 296 296 297 296 297 297 298 298
232 234 238 242 242 241 243 246 250 254 258 260 264 269 272 277 283 286 288 289 290 288 288 291 292 294 294 295 295 296 297 298 298 297 296 296 296 296 296 296 297 297 298
234 237 241 242 243 244 248 250 253 256 256 259 264 268 271 276 281 283 286 288 290 290 290 291 294 295 296 296 296 296 297 298 298 297 296 296 297 297 296 297 297 297 296
239 240 243 245 246 250 252 253 255 257 259 260 263 268 273 277 283 285 287 289 290 290 291 292 292 294 296 296 297 297 298 298 299 298 298 298 298 299 298 298 299 298 297
242 244 247 249 251 253 256 257 258 260 262 265 266 270 275 280 285 289 290 291 292 291 293 295 294 293 294 295 296 297 298 299 299 298 298 299 299 300 301 300 299 298 298
246 246 248 250 252 256 259 259 259 260 262 268 269 271 277 282 286 290 291 291 293 295 296 296 298 296 295 295 296 298 298 299 299 298 299 299 300 302 302 302 300 298 298
249 249 250 250 253 257 260 261 262 260 261 267 270 272 277 282 286 288 289 290 292 295 296 297 297 298 298 297 297 298 298 298 299 299 300 300 301 302 303 302 301 299 298
250 251 251 252 255 258 260 261 263 265 265 268 272 275 278 281 286 287 289 290 292 295 296 297 298 298 299 300 298 298 299 299 300 300 301 301 302 303 303 303 302 301 300
251 251 253 255 257 258 260 263 264 265 266 267 269 274 279 281 284 287 288 289 293 296 297 298 298 298 299 301 300 299 299 300 300 300 301 302 303 304 304 304 304 303 302
253 252 253 255 257 259 260 263 265 267 266 266 268 272 277 281 284 286 288 289 293 296 297 298 298 299 298 300 301 301 300 301 301 301 302 303 304 304 305 305 305 304 303
256 254 252 254 257 260 262 265 265 266 267 268 270 273 276 281 285 286 287 289 293 295 297 298 299 299 299 299 301 302 301 301 302 303 303 303 304 304 305 305 304 302 301
257 255 254 255 258 262 264 265 265 266 268 270 272 274 277 281 284 287 288 289 291 294 296 298 299 301 301 300 301 302 302 302 302 303 303 303 304 305 305 304 303 302 302
258 258 259 261 262 263 264 266 268 269 270 273 275 276 278 281 284 286 287 289 292 293 295 297 299 301 302 302 302 302 302 302 302 302 302 303 304 304 305 304 303 303 302
258 260 263 264 263 263 265 267 270 272 273 275 276 276 277 280 282 285 287 289 291 293 295 298 300 302 303 304 303 303 303 303 303 304 303 303 303 304 305 306 305 304 303
261 262 263 263 264 266 268 271 273 275 277 277 278 278 280 282 284 286 288 290 292 294 295 298 300 301 302 303 303 303 303 303 303 303 303 303 303 304 305 306 306 306 304
262 263 264 266 267 268 270 272 274 276 278 280 281 282 283 284 285 286 288 291 292 294 296 298 300 301 302 302 302 302 303 304 304 303 303 303 303 303 304 305 306 306 306
263 264 266 268 270 271 272 273 274 276 277 279 280 282 283 284 286 288 289 291 293 295 297 298 299 301 302 302 302 302 303 303 303 303 304 304 303 304 304 305 306 306 306
264 266 267 268 270 272 273 274 275 276 277 278 279 281 283 285 287 288 289 291 293 295 297 298 299 301 302 302 303 303 303 303 303 304 304 305 305 305 305 306 306 306 306
267 268 270 271 273 273 274 275 277 278 278 279 281 283 284 286 288 290 291 292 293 295 297 298 299 301 301 301 303 303 302 303 304 304 304 305 306 306 306 306 307 307 307
270 270 270 272 273 273 274 276 278 279 280 281 282 284 285 287 289 291 291 292 294 295 297 299 300 301 301 302 302 303 303 303 304 304 304 305 306 306 306 306 307 307 307